Wind_Speed
15 10 10 12 13 15 15 16 12 6 8 12 12 10 10 12 9 8 10 7 7 9 7 8 9 10 10 9 9 9 8 9 9 8 6 7 8 7 6 6 6 5 5 4 3 2 2 2 2 1 1 3 4 5 4 3 4 6 7 7 6 7 9 11 12 13 11 10 13 14 15 16 16 18 19 20 20 19 18 18 19 19 20 20 20 19
14 11 12 14 14 17 17 16 11 7 9 11 11 10 9 11 9 9 9 7 4 5 6 8 9 10 9 9 8 8 8 9 9 8 8 6 7 8 6 5 5 5 4 4 3 2 1 1 4 5 4 5 5 5 3 2 3 6 8 7 7 9 11 11 11 12 11 11 12 12 14 16 17 19 19 20 22 22 21 21 20 21 21 22 21 20
12 11 14 17 15 16 16 15 12 9 10 10 9 10 9 9 9 9 8 7 6 4 7 11 8 9 9 9 9 8 9 10 10 10 9 8 8 8 6 6 4 3 4 4 2 2 2 1 2 5 5 4 3 2 2 1 1 2 3 4 6 9 11 10 10 11 11 12 12 13 14 15 16 17 17 19 21 22 23 22 22 23 24 23 22 20
10 11 16 17 14 15 15 15 14 10 10 9 9 9 9 10 11 8 7 8 6 4 8 12 7 7 8 8 8 8 9 11 12 12 12 11 10 9 7 6 4 4 3 3 1 2 1 1 1 2 3 3 3 3 1 1 1 1 2 3 5 7 9 9 8 8 10 11 12 12 13 12 13 14 15 18 20 21 24 23 23 24 24 23 22 20
10 12 16 16 14 16 15 16 16 11 9 10 10 10 10 12 10 8 10 10 6 5 10 13 8 5 6 7 7 6 8 11 12 13 13 13 12 12 10 8 6 5 3 1 2 5 5 4 3 3 4 6 5 5 3 3 4 3 4 5 5 5 6 7 7 7 8 9 9 10 12 11 11 12 13 17 19 20 23 23 24 24 23 23 22 19
11 12 17 17 16 18 16 15 16 13 9 9 11 9 10 14 10 11 15 11 7 7 11 11 7 7 6 7 7 6 8 10 11 12 13 13 13 13 13 12 10 8 7 6 6 7 9 8 6 5 6 7 6 6 6 7 8 7 7 7 6 6 6 6 7 6 5 6 6 8 11 12 12 13 14 15 16 18 20 21 22 24 24 23 22 19
9 14 17 18 18 19 18 14 17 17 9 8 11 9 7 12 11 13 15 11 7 7 10 10 6 7 8 6 7 7 10 12 11 12 13 13 14 14 14 13 12 11 10 9 10 10 10 10 9 8 8 7 8 8 7 8 9 9 9 9 8 7 6 7 6 5 3 4 6 7 9 11 12 13 13 13 14 15 17 18 18 22 23 21 21 19
10 16 18 18 18 17 15 13 16 18 10 7 13 12 8 9 11 13 13 10 6 6 9 10 7 6 8 6 7 8 11 13 11 10 11 13 15 16 16 15 14 13 11 10 11 12 11 10 10 11 10 9 9 9 8 8 9 10 10 9 9 8 7 6 5 5 3 4 6 7 8 9 10 11 11 11 11 12 14 16 16 19 21 18 18 17
12 17 18 20 18 13 13 13 15 17 11 5 11 13 10 9 9 11 10 8 7 6 9 11 9 7 8 7 8 9 10 12 11 10 11 14 16 16 17 16 16 15 14 14 13 13 12 11 11 11 10 10 10 9 9 9 9 10 10 9 9 8 7 6 5 5 5 5 7 7 7 7 8 9 8 8 9 10 13 13 12 15 15 12 13 15
11 17 19 18 15 12 13 14 16 18 10 7 9 9 8 7 6 7 8 7 7 7 10 13 12 8 7 8 8 8 8 10 9 9 10 13 14 14 15 15 14 14 15 15 15 15 14 13 12 11 11 10 10 9 8 8 8 8 8 8 8 8 7 7 6 6 7 8 9 7 6 6 7 7 7 7 5 5 7 5 4 8 9 8 11 14
12 18 19 16 14 13 13 12 16 18 10 9 9 8 7 7 6 5 7 7 7 8 10 15 14 9 7 9 6 5 6 8 9 8 9 11 13 13 12 13 13 13 12 13 14 15 14 13 13 12 12 11 9 8 7 7 7 8 8 8 7 7 7 6 6 6 6 7 9 8 7 7 8 6 6 6 2 1 1 2 2 5 7 8 11 14
12 15 14 13 15 15 12 11 12 13 10 9 10 9 8 8 6 6 6 7 8 9 9 13 11 9 8 7 6 7 6 7 8 9 10 11 12 12 11 11 11 11 11 12 14 15 15 15 15 14 14 12 11 10 10 10 9 9 10 9 8 9 8 6 6 6 5 5 7 8 8 8 8 6 4 6 4 3 2 2 3 5 6 8 10 12
12 13 12 13 14 15 13 10 9 9 9 11 11 10 10 8 7 9 10 9 8 6 7 11 10 7 4 7 9 10 8 9 10 11 12 12 13 13 12 12 11 11 12 13 15 16 16 16 15 14 13 12 12 12 11 11 11 11 10 10 9 10 10 8 7 7 7 7 7 8 8 8 9 8 6 6 6 5 6 7 8 7 7 9 11 13
10 13 16 14 11 15 15 11 9 10 11 12 11 12 11 9 9 10 10 11 8 4 6 8 10 7 6 8 10 11 10 12 14 14 14 13 13 13 12 12 12 12 14 15 15 16 16 16 14 13 12 12 12 12 12 12 13 13 11 10 9 9 10 10 10 10 10 10 10 9 8 8 8 9 8 8 8 8 9 10 12 10 8 10 12 14
11 12 15 14 11 16 17 13 12 11 11 12 11 11 11 9 9 9 9 12 11 7 7 7 7 6 7 8 11 13 13 14 14 14 14 13 12 12 12 12 12 13 13 13 13 14 14 14 13 12 12 12 12 12 12 13 13 13 12 11 10 10 10 11 11 13 13 13 12 12 10 9 8 9 10 9 9 10 11 11 11 11 10 9 11 14
13 9 13 16 12 16 17 14 13 13 10 10 10 11 11 10 9 5 3 4 7 9 7 5 2 3 6 10 13 14 14 14 14 13 13 12 11 11 12 12 12 12 11 11 12 12 13 12 12 12 12 13 13 13 13 13 13 12 12 12 12 12 12 12 12 13 14 14 14 14 12 10 9 10 10 10 11 12 11 10 11 11 11 11 12 15
11 9 16 17 12 17 20 15 14 14 10 7 10 10 5 7 9 6 2 3 6 8 6 4 4 5 6 8 11 12 12 13 12 12 12 12 11 11 13 12 11 11 11 12 12 13 13 13 12 13 13 13 13 13 13 13 13 13 13 13 12 12 11 11 11 11 12 13 14 13 12 10 9 11 10 11 13 12 11 11 11 12 13 14 14 15
9 7 15 18 12 15 20 18 15 14 10 6 10 10 4 1 6 8 6 5 8 9 5 6 9 9 7 7 10 13 11 12 11 10 11 11 11 12 13 11 10 11 11 11 12 12 14 15 14 14 14 13 13 13 12 12 13 14 14 14 13 13 13 12 12 12 12 13 14 13 12 10 9 11 12 12 12 11 10 11 11 12 13 14 14 15
9 6 12 17 14 13 13 14 14 12 10 8 9 10 6 5 7 9 8 8 10 8 6 9 11 9 8 8 12 15 13 13 12 10 9 9 10 11 11 10 10 10 10 11 11 11 12 14 14 14 14 14 12 12 12 12 12 12 13 13 13 13 13 13 13 14 14 14 15 15 14 11 10 11 13 13 12 10 10 11 11 11 11 12 13 14
10 6 8 13 13 12 11 10 11 10 9 9 9 10 8 7 7 8 7 7 10 8 7 9 10 8 6 8 14 16 15 15 13 10 8 9 10 10 9 9 9 10 10 11 12 11 11 12 12 12 12 12 11 11 11 11 11 11 11 12 12 12 12 12 13 13 13 13 14 14 14 13 11 10 11 12 12 11 10 11 11 10 10 11 13 15
8 6 7 10 10 11 11 9 11 13 11 9 9 11 10 6 5 7 5 4 7 8 7 8 8 6 4 7 14 17 15 15 14 12 10 10 11 10 9 9 9 10 10 11 11 11 11 10 11 11 11 11 11 11 10 10 11 11 11 11 12 12 12 12 12 12 12 11 11 12 13 13 11 9 9 11 11 10 10 10 11 11 10 11 13 14
7 7 8 10 10 11 11 6 6 10 13 12 9 11 12 8 7 8 6 3 5 6 7 8 8 5 4 1 10 17 15 14 16 16 14 13 12 11 10 9 10 10 10 10 10 10 10 10 11 11 11 12 13 13 12 11 11 11 11 12 13 13 13 13 12 12 12 11 10 11 11 11 10 8 7 9 10 10 10 11 11 12 11 12 13 13
3 5 9 11 10 8 6 4 1 2 9 12 11 11 12 10 9 10 8 7 6 4 4 6 6 5 4 3 8 15 15 16 18 18 17 15 13 12 11 10 11 11 10 9 8 9 10 11 11 11 13 15 16 17 15 13 12 12 12 13 14 15 14 13 12 11 12 11 11 11 11 11 11 10 9 10 11 12 12 12 12 12 12 12 12 14
2 6 9 10 9 6 7 4 2 1 6 11 10 10 11 11 11 9 7 8 8 6 6 6 6 5 4 4 11 16 17 18 18 18 19 16 13 12 11 11 11 10 10 9 8 9 9 10 11 12 16 17 18 19 19 17 14 12 12 13 15 17 16 13 11 11 12 12 12 11 12 12 13 14 12 11 12 14 14 14 13 12 12 13 13 14
5 7 9 10 9 7 6 7 6 7 8 8 6 4 5 9 11 7 4 8 8 8 9 8 5 5 5 8 13 16 18 17 16 18 18 16 14 12 11 11 10 10 10 9 9 9 9 11 12 14 17 17 18 20 20 19 17 14 13 13 14 16 18 16 14 13 13 13 13 13 13 12 12 14 14 14 15 16 16 16 16 14 13 14 16 16
4 2 4 9 12 11 11 9 7 9 9 5 5 5 2 6 10 7 5 7 7 7 9 8 4 7 8 10 12 13 15 15 15 17 17 15 13 12 11 10 10 10 9 9 9 9 10 13 15 16 16 16 17 20 20 21 20 16 13 14 15 15 18 19 17 16 15 14 14 14 14 13 12 13 14 14 16 17 17 17 16 15 14 15 17 18
4 3 4 1 5 6 6 4 3 6 10 8 8 8 5 3 3 6 7 7 6 8 7 5 11 13 11 12 12 12 13 13 14 16 16 15 13 12 11 10 10 10 9 9 9 9 10 15 17 16 16 16 16 18 19 20 21 18 15 15 15 15 17 18 17 16 16 16 17 16 15 15 14 14 14 14 15 15 16 15 14 14 14 16 18 19
4 3 6 8 8 6 5 6 4 6 9 10 10 9 6 4 2 6 7 4 7 9 6 8 17 17 14 13 13 12 11 11 13 15 15 14 13 12 12 11 11 11 10 9 9 9 12 15 16 16 16 16 15 16 17 19 20 19 17 16 15 13 15 16 15 16 17 17 19 19 17 16 15 15 15 15 16 15 15 15 14 14 14 16 19 20
3 4 4 7 11 9 7 7 8 10 11 10 10 9 7 4 3 5 3 2 3 5 5 12 16 15 14 14 12 12 12 12 14 14 14 14 13 13 13 12 12 11 11 10 9 11 13 15 15 15 14 14 14 15 16 18 18 19 19 18 15 13 14 14 14 15 16 17 20 22 21 19 17 16 16 16 16 16 16 15 13 13 13 14 16 18
1 5 6 9 12 11 9 8 10 12 13 12 11 10 8 8 8 8 7 6 7 8 10 17 18 13 12 12 12 14 15 16 16 14 14 15 13 13 13 13 11 11 11 10 10 12 13 13 14 14 13 14 15 15 16 17 18 18 19 18 16 15 14 14 14 15 16 17 20 22 23 22 21 19 16 15 15 15 16 15 11 9 11 13 13 15
1 5 7 7 9 9 8 8 9 11 14 15 13 10 9 10 10 10 9 8 10 12 14 19 18 12 8 12 16 16 16 17 16 15 15 14 12 13 13 12 11 11 11 10 12 13 12 12 13 13 13 14 15 15 16 17 17 17 18 18 18 18 17 15 15 15 15 16 17 20 24 26 24 22 19 16 13 12 13 13 11 9 10 12 13 14
3 6 5 3 5 6 5 8 11 13 15 15 13 10 8 8 8 7 6 4 4 11 15 14 11 7 8 14 17 16 16 17 15 15 15 13 11 12 13 12 12 12 11 12 14 14 13 14 13 12 13 14 14 14 16 16 16 17 18 18 19 20 20 18 15 14 15 16 16 18 22 27 27 25 22 19 14 12 11 10 11 11 11 12 13 14
6 8 6 5 5 5 5 7 8 9 10 9 8 7 6 7 9 8 8 6 6 10 9 5 7 10 13 15 15 14 15 15 14 14 13 12 12 12 13 13 12 12 11 12 13 13 13 13 12 12 13 13 13 14 15 15 16 17 18 18 19 19 21 21 18 15 16 17 17 18 20 25 27 26 23 20 16 13 12 10 9 10 10 11 12 12
8 9 6 3 4 6 8 6 3 6 7 3 2 2 3 5 9 10 10 9 8 7 6 8 12 15 14 14 14 14 14 14 14 13 11 11 12 12 13 13 13 12 10 10 12 13 13 13 12 11 12 13 13 14 13 14 16 17 17 18 19 19 21 23 21 17 16 17 19 20 21 22 25 25 23 21 18 14 13 12 10 9 8 8 8 8
9 8 5 3 4 6 7 6 6 6 3 1 1 1 4 8 13 15 13 10 9 10 13 16 16 15 15 16 17 18 19 17 15 13 11 10 11 13 14 13 12 12 10 11 13 13 13 12 12 12 14 15 14 14 14 14 15 15 16 17 20 20 21 24 23 19 16 17 19 21 23 23 23 23 23 22 20 18 17 16 15 13 11 10 9 10
9 7 5 4 5 6 6 5 5 4 3 2 3 5 8 11 13 13 11 9 7 10 14 16 16 17 19 20 19 20 21 20 18 15 11 11 11 12 13 13 12 11 10 11 13 14 14 13 13 14 15 14 14 15 16 17 16 15 16 17 19 21 22 24 25 20 16 18 19 20 22 24 24 23 23 23 23 23 23 23 21 19 17 15 13 12
7 7 7 5 3 4 5 4 4 4 4 4 4 6 7 6 4 5 6 5 4 8 13 15 16 18 20 21 21 22 21 19 17 13 10 10 11 12 13 14 12 11 11 10 11 12 13 13 13 13 13 13 14 16 16 16 15 15 17 18 19 21 22 24 25 21 17 18 19 19 21 22 22 23 23 25 26 26 27 27 25 24 22 19 18 16
3 3 6 5 1 3 6 6 5 5 4 4 7 8 5 1 2 4 7 5 4 8 14 16 16 19 20 20 21 20 15 11 10 7 8 10 11 12 14 13 11 10 11 10 10 11 12 12 12 12 12 12 14 15 15 15 15 15 17 18 20 21 22 24 25 21 18 17 18 19 20 20 21 21 22 25 28 28 27 27 26 25 23 21 19 17
5 2 3 5 4 5 7 6 5 3 2 4 9 9 6 4 3 5 5 4 6 10 15 17 18 20 21 21 19 16 9 5 5 7 9 10 11 12 12 12 10 10 11 11 11 11 11 11 11 11 11 11 12 13 12 13 14 15 17 18 19 20 21 23 24 21 18 17 17 18 19 19 20 21 21 23 25 27 27 26 25 22 20 18 17 15
5 3 2 5 6 6 5 4 4 3 3 5 9 10 7 5 5 6 4 4 10 14 16 18 20 21 22 20 15 8 3 5 10 12 13 12 12 11 11 11 11 11 11 11 11 11 11 11 11 11 12 12 11 11 11 12 13 15 16 17 18 20 21 21 21 19 17 16 16 18 21 22 22 23 22 21 22 25 27 26 25 22 19 17 15 13
4 3 1 4 6 5 4 4 4 4 3 6 8 8 7 5 5 5 2 7 17 19 17 19 21 20 19 16 10 5 8 14 19 19 17 14 13 13 12 11 11 11 11 11 11 12 11 12 12 13 13 12 11 11 11 12 13 14 15 16 17 19 19 19 19 18 16 16 16 17 21 25 25 25 25 23 22 24 25 26 26 24 21 19 17 15
4 3 2 3 4 4 3 4 5 4 4 7 8 7 5 3 2 2 6 15 22 21 19 20 19 17 14 12 13 16 21 24 24 21 17 15 14 14 13 12 12 12 12 12 12 12 12 13 13 14 14 14 13 13 13 14 15 15 16 17 17 18 17 17 18 18 17 16 15 17 20 23 24 24 25 24 22 23 22 21 22 24 23 22 21 19
1 1 4 4 2 2 5 5 3 3 6 10 10 6 1 2 4 11 17 20 22 21 21 20 17 15 17 18 21 23 25 24 22 19 18 16 15 14 13 13 13 13 13 13 13 13 13 13 14 14 15 15 15 15 16 16 17 17 17 17 17 16 17 17 17 18 18 17 15 15 17 21 22 22 23 23 23 23 21 17 18 22 23 21 20 20
4 2 3 3 2 2 4 4 1 3 8 10 7 5 6 7 12 19 22 23 22 21 20 19 17 18 21 23 24 24 23 23 21 19 18 18 16 15 14 14 14 13 13 14 14 14 13 14 14 15 15 16 16 16 17 18 18 18 18 18 16 16 16 16 17 18 19 19 17 16 16 18 19 20 20 21 21 22 22 19 19 22 22 22 21 20
4 4 3 5 4 3 5 5 4 6 11 11 9 10 13 14 16 18 22 25 24 20 18 19 21 21 22 23 24 23 22 22 21 18 18 18 17 16 15 14 14 14 14 14 14 14 14 14 15 15 15 15 15 16 16 17 18 19 19 17 16 16 15 15 16 17 18 18 19 18 17 17 18 19 19 19 20 21 21 20 20 22 22 23 24 23
5 4 4 6 8 8 10 10 9 10 13 13 13 14 15 17 18 20 22 23 22 20 20 22 22 23 23 23 23 23 22 21 20 19 18 18 17 16 15 15 14 15 15 15 14 14 14 14 15 15 15 14 14 15 15 16 17 18 18 16 16 16 15 15 15 16 17 17 18 18 18 18 18 19 19 20 20 21 21 21 21 22 23 24 25 25
4 2 3 6 7 5 5 7 8 11 13 14 15 16 16 18 19 20 21 21 21 20 22 23 23 23 23 22 22 23 23 22 22 21 20 18 18 17 16 16 16 16 16 15 14 13 13 14 14 14 14 14 14 14 14 15 16 17 17 16 15 15 15 15 15 15 16 16 16 16 18 19 20 20 20 21 22 21 22 22 22 22 24 24 25 25
4 5 6 7 6 4 6 9 11 13 14 14 15 17 18 18 19 19 20 22 22 22 23 23 23 24 23 23 24 25 25 23 23 22 21 19 19 18 17 17 16 15 15 14 13 13 13 13 13 13 14 14 14 14 14 15 15 16 16 16 16 16 16 16 16 15 15 15 15 15 16 17 19 19 19 21 23 24 25 23 21 22 25 26 25 24
6 7 6 7 9 8 8 11 14 14 12 11 13 16 17 18 20 21 21 22 24 25 25 24 22 23 24 25 26 26 25 24 22 22 21 20 19 18 17 16 15 14 14 13 13 12 13 13 13 13 13 14 13 14 14 15 15 15 16 16 17 16 16 16 16 15 15 15 15 15 15 16 16 16 17 18 19 22 26 25 23 23 25 25 24 23
6 8 7 9 9 6 7 12 13 10 8 10 14 16 17 19 22 23 25 26 26 26 27 26 25 25 24 25 25 25 25 24 21 21 21 19 18 18 16 16 15 14 14 13 13 13 13 13 13 13 13 13 13 14 14 15 15 15 16 16 17 17 16 16 15 16 16 16 15 15 15 15 15 16 16 16 16 18 20 23 24 25 25 24 23 22
2 6 6 5 4 7 14 18 14 11 13 15 16 18 18 20 23 26 27 28 27 27 28 29 29 27 25 24 23 23 23 23 22 21 20 19 18 17 16 15 14 14 13 12 12 12 12 11 12 12 12 12 12 13 14 15 15 15 15 16 16 17 16 16 15 16 16 16 17 16 15 15 15 15 15 16 16 15 15 17 20 22 23 23 22 22
Wind_Direction
184 189 201 202 197 193 192 198 204 199 180 177 184 191 181 178 178 153 129 124 178 182 163 154 129 97 82 75 67 68 74 75 80 92 109 131 143 142 141 145 149 159 182 206 208 208 176 177 236 257 273 293 315 318 305 286 266 258 257 256 256 248 244 249 259 271 274 269 265 262 262 263 261 259 258 256 252 248 245 240 234 230 230 231 228 227
188 205 204 199 199 189 189 196 191 183 181 181 189 187 180 183 168 146 135 125 167 178 142 142 123 93 85 83 73 75 80 72 74 83 84 99 122 122 112 116 138 168 202 230 214 179 139 178 278 300 303 310 327 325 303 268 267 269 269 267 263 261 259 261 269 276 279 276 272 271 270 268 267 266 262 258 255 252 250 250 245 235 231 231 230 226
194 213 202 197 199 186 185 190 181 179 187 189 193 187 184 175 143 125 125 133 171 188 156 155 133 96 86 83 77 73 80 81 80 81 78 83 101 107 96 88 102 155 198 233 211 149 158 170 298 302 296 310 345 1 341 306 279 274 281 284 273 274 279 277 274 277 281 276 271 273 276 276 274 271 265 260 258 253 250 252 251 240 234 234 233 227
195 208 198 190 188 179 177 185 185 183 191 196 192 191 185 167 155 148 138 140 164 189 162 158 140 112 106 94 83 78 92 97 94 90 84 83 89 96 101 91 81 99 143 212 191 106 138 131 79 336 326 9 46 56 41 314 284 239 251 270 268 277 288 288 282 282 285 281 279 282 284 285 282 276 270 265 263 256 249 249 248 242 238 238 238 232
200 199 185 176 179 180 177 183 190 189 190 196 196 198 183 172 174 152 139 140 147 167 166 159 150 141 131 114 102 98 108 103 99 99 89 85 87 88 92 90 82 86 102 123 65 62 63 64 72 64 59 62 55 41 21 334 324 313 297 291 281 280 281 279 284 290 290 291 298 300 297 297 292 284 277 271 269 262 252 248 247 243 239 241 242 238
205 183 172 177 184 186 184 184 192 193 188 189 201 213 184 173 163 129 139 151 153 168 178 181 180 165 143 118 121 126 116 102 96 99 89 83 85 83 81 80 80 84 87 86 71 65 71 71 72 68 60 55 46 34 18 2 357 347 334 328 320 312 301 297 305 305 293 293 304 307 303 303 297 287 280 277 279 271 260 256 252 243 239 243 245 243
193 166 173 187 185 187 189 188 191 193 197 187 190 209 189 172 159 142 157 171 174 172 178 202 222 171 155 129 128 132 116 105 98 97 90 83 80 78 77 75 76 81 87 86 75 70 71 68 62 56 44 39 43 39 24 15 12 2 352 346 343 344 341 336 335 333 314 304 305 300 295 298 299 291 285 282 279 270 262 262 253 241 240 243 245 243
178 169 182 188 184 189 192 190 189 193 208 182 172 189 193 175 164 162 176 189 184 152 162 205 238 186 166 144 134 136 116 108 103 97 92 84 79 76 77 77 75 76 80 79 72 66 63 58 53 49 45 43 45 40 28 24 25 19 16 11 4 3 3 353 350 351 337 309 304 299 294 301 308 302 298 288 273 265 262 257 244 238 238 235 235 239
170 179 184 185 186 192 195 190 181 191 209 153 158 186 193 189 181 176 189 196 182 167 176 201 219 195 164 145 146 146 123 113 110 101 86 78 75 74 74 76 75 73 73 73 72 70 67 61 56 54 54 52 48 43 38 34 30 26 26 20 6 1 6 4 3 0 344 328 318 301 287 302 315 313 310 294 277 276 269 255 239 238 239 227 223 232
172 188 184 186 193 192 195 188 174 191 202 124 144 181 187 199 195 187 202 192 176 199 199 189 200 205 162 149 163 157 132 122 118 105 90 81 77 72 68 69 71 71 71 71 75 77 74 69 68 67 64 59 53 47 45 40 31 26 24 17 1 353 2 2 353 356 352 344 341 325 295 296 309 316 314 300 298 300 279 252 233 252 255 238 227 228
169 186 188 193 201 195 188 177 174 190 185 137 158 177 180 197 194 196 215 193 181 211 201 180 193 216 179 157 156 145 132 130 130 119 105 94 84 74 67 66 67 69 68 70 77 81 78 74 73 71 67 65 60 50 43 36 26 17 13 13 4 354 359 353 337 350 358 338 332 328 315 303 302 312 308 292 295 67 351 358 346 285 266 248 238 233
166 183 191 194 204 198 177 162 173 185 178 170 181 183 183 188 186 192 199 197 202 209 184 168 189 219 197 163 138 138 136 124 128 126 113 100 88 79 71 69 68 67 67 70 75 76 75 74 71 67 65 64 58 49 40 33 26 18 11 8 2 352 353 353 338 342 344 324 318 314 307 300 294 293 279 258 235 196 235 285 295 284 268 256 249 244
178 188 185 186 202 201 180 166 174 180 187 196 189 182 187 179 183 196 192 198 208 193 156 160 188 210 161 121 129 141 131 110 109 111 107 99 90 81 74 72 69 67 68 69 69 66 66 66 62 57 54 50 44 38 33 29 24 17 9 2 355 349 346 347 340 329 319 313 311 302 295 289 284 286 272 233 224 231 241 240 243 249 255 261 255 248
183 188 186 186 193 201 200 187 179 182 191 200 191 185 191 181 182 195 191 195 198 157 131 163 188 183 133 118 126 126 115 111 107 100 97 94 89 83 77 73 69 67 67 66 64 61 61 59 53 46 39 33 29 25 21 18 14 6 360 354 350 344 339 337 333 326 320 312 304 297 288 277 269 273 265 235 222 233 238 235 238 239 243 258 257 250
185 187 188 192 186 190 204 203 186 183 189 199 201 194 197 194 186 192 196 198 192 155 128 163 189 177 156 130 115 115 115 112 105 98 96 92 90 88 79 71 66 63 62 61 58 55 53 50 44 35 29 24 19 16 15 12 9 3 358 359 356 351 345 339 333 328 324 317 310 303 290 276 260 250 247 238 231 235 239 238 240 241 244 252 252 250
195 192 179 191 193 182 197 207 190 185 189 196 208 205 204 205 189 178 209 196 170 151 134 153 162 104 124 117 115 125 123 112 105 102 100 94 93 91 77 67 63 60 58 57 54 49 46 42 37 31 26 22 18 16 15 14 11 6 4 7 5 1 353 343 335 327 321 316 313 310 299 284 268 253 241 233 233 236 240 242 239 236 236 235 237 245
194 182 163 177 195 189 196 201 190 195 191 178 204 204 200 219 192 158 108 81 148 165 150 154 138 108 130 134 137 146 132 122 119 107 102 99 97 90 75 66 63 61 59 57 53 49 47 44 39 35 28 22 19 16 15 13 10 6 5 4 1 359 352 342 335 327 320 312 309 310 304 287 272 267 257 241 237 237 237 236 231 228 228 227 230 240
194 171 158 173 184 185 195 195 189 205 203 180 200 188 134 233 194 177 172 159 183 188 164 175 167 153 169 158 153 161 148 141 140 120 110 104 94 84 74 67 66 64 61 56 52 49 49 48 42 38 32 25 19 15 12 10 8 6 3 359 354 351 344 338 333 327 323 317 314 316 309 289 266 263 261 250 241 237 236 235 232 231 233 227 226 233
203 179 160 182 183 165 183 193 188 202 215 214 200 178 168 187 183 192 195 184 194 186 157 176 173 171 190 167 159 168 159 153 154 139 124 108 93 87 80 74 69 65 59 54 49 44 45 47 40 35 33 28 22 16 13 11 11 9 6 0 355 349 341 335 330 325 323 322 322 323 320 303 271 257 258 257 252 246 244 246 244 242 241 233 226 227
207 207 164 182 180 161 173 196 191 186 201 220 202 181 196 206 186 193 198 197 202 187 161 173 178 190 196 163 165 169 156 155 155 142 130 109 98 97 90 83 73 65 59 52 49 47 46 43 35 28 25 21 15 14 16 14 12 12 12 9 2 356 346 334 328 323 319 321 321 321 321 314 291 265 260 263 260 257 257 254 250 250 249 242 233 228
199 213 170 163 166 171 180 196 198 184 181 200 198 186 190 196 187 185 190 223 217 194 176 178 185 184 143 144 164 160 152 157 153 141 134 119 109 105 95 90 79 66 60 53 50 51 45 36 29 23 20 18 17 23 28 20 13 12 12 12 9 1 352 339 330 324 320 320 319 315 315 315 304 280 272 273 267 264 265 259 253 253 252 246 240 235
197 204 171 158 174 189 183 178 197 192 186 188 194 194 189 187 186 178 176 205 215 203 187 186 185 151 76 83 162 155 155 157 147 139 133 124 117 109 97 91 80 69 64 58 53 48 39 33 30 27 30 35 36 41 41 24 13 15 12 12 14 8 358 348 337 330 331 329 321 315 312 310 303 287 283 287 282 277 271 264 260 258 256 252 248 244
198 207 175 167 178 174 137 97 27 210 194 193 199 198 188 188 198 193 183 180 193 199 177 194 196 139 50 3 144 146 148 145 142 138 130 122 117 110 102 92 82 76 72 67 57 47 42 39 35 36 43 47 45 46 46 31 17 15 13 14 23 22 10 355 344 339 342 340 329 318 312 306 298 287 280 282 287 290 284 278 272 266 261 258 254 248
159 202 180 171 167 132 95 101 129 196 200 199 199 194 189 190 198 206 195 174 183 192 179 199 204 148 89 78 115 124 127 130 135 133 126 122 118 110 104 96 89 86 81 73 62 52 49 43 37 42 49 50 46 47 49 41 25 14 12 15 25 30 25 12 1 355 351 349 346 334 320 310 300 293 286 280 282 286 287 286 283 276 267 262 255 248
186 195 180 172 167 154 148 159 171 191 201 198 179 171 191 186 182 189 181 175 190 198 195 207 194 139 126 119 117 120 121 122 125 124 120 120 118 112 107 101 96 92 84 75 65 57 51 45 43 47 50 50 47 46 48 46 33 18 13 13 15 25 32 30 23 16 7 358 356 353 341 326 311 301 296 288 284 283 282 281 282 282 277 270 262 252
171 187 191 189 182 178 179 175 173 180 183 177 148 139 143 178 181 177 172 189 196 184 201 219 160 118 127 129 125 125 122 120 120 117 114 115 116 114 109 104 100 94 85 74 67 61 54 52 53 54 53 51 49 45 44 44 37 22 12 13 10 16 32 36 27 18 15 10 3 359 351 341 328 315 305 295 288 285 283 281 281 281 279 277 272 260
126 48 27 129 171 172 164 133 113 163 166 158 147 143 127 125 180 191 194 203 181 169 199 189 133 135 148 143 136 133 127 125 126 119 114 115 115 111 106 102 98 94 86 78 70 64 59 58 57 56 54 52 49 44 40 40 37 27 17 14 12 14 27 31 21 9 8 15 17 11 359 349 340 329 321 312 304 297 289 284 280 278 275 274 276 266
145 98 47 55 74 80 79 81 88 132 145 142 137 135 125 102 163 195 195 176 155 172 190 138 134 146 157 151 142 137 131 127 125 120 118 118 114 110 107 101 97 93 87 80 72 70 70 64 58 56 56 56 52 47 41 37 36 33 26 19 11 10 17 18 12 8 6 11 21 21 12 3 354 343 335 328 322 315 305 292 281 277 273 270 272 269
139 101 76 83 85 74 65 78 93 100 102 104 109 116 117 102 129 153 128 57 153 181 158 136 137 140 147 147 138 132 129 123 118 117 118 116 112 111 107 100 97 93 86 77 73 79 77 69 62 56 53 54 52 45 38 33 33 33 32 25 13 7 12 11 9 11 8 8 16 21 18 13 7 356 344 334 326 320 316 308 294 282 278 272 269 269
90 97 119 110 91 74 65 76 93 102 101 91 85 89 97 90 85 93 84 68 85 92 104 120 118 111 123 130 120 119 120 116 115 116 115 111 111 111 106 101 99 91 83 78 80 84 78 72 69 59 48 46 44 38 32 28 26 27 30 28 18 13 16 14 12 13 10 8 13 19 19 16 13 7 356 343 332 324 318 316 311 294 281 274 268 267
18 136 147 122 89 75 71 82 95 103 100 90 78 72 84 89 80 80 84 77 82 94 107 113 109 99 106 114 112 114 115 113 116 115 111 109 111 112 108 104 100 91 84 85 89 87 78 73 70 62 52 45 38 33 30 27 24 23 27 29 26 25 24 17 12 13 12 8 8 15 20 18 14 11 7 357 344 333 323 318 314 301 281 273 272 271
116 139 177 186 110 89 86 103 109 106 99 88 73 60 65 83 79 73 71 49 88 123 126 124 122 125 129 121 116 116 116 115 114 111 108 109 113 113 109 105 102 93 87 90 91 86 78 72 67 62 58 48 37 33 31 29 26 24 28 30 28 28 26 20 14 13 14 12 8 11 17 19 17 13 10 7 358 348 338 324 313 300 285 276 273 270
131 139 180 198 131 115 138 133 125 132 125 97 63 42 47 87 98 87 76 69 99 130 136 132 130 132 133 128 120 117 117 112 108 109 111 114 114 109 106 105 103 96 90 88 88 83 77 73 66 60 57 49 42 38 33 31 33 32 32 34 32 29 28 24 18 15 18 20 18 14 12 16 18 16 14 13 7 359 354 346 327 306 290 283 278 269
141 146 163 172 130 137 154 153 172 179 158 112 17 348 22 91 107 98 87 79 78 89 89 96 116 127 131 128 123 119 114 106 104 106 109 115 115 110 106 105 102 98 91 86 88 85 79 75 67 58 55 52 49 43 37 38 40 36 34 37 35 31 29 27 21 17 18 18 20 20 16 15 17 17 17 19 16 9 5 5 1 345 324 309 304 298
146 144 137 121 119 134 149 167 187 180 157 21 291 137 89 99 105 95 81 70 74 95 105 110 119 125 121 118 118 115 110 104 100 98 99 106 111 111 107 103 99 97 92 87 88 85 78 73 67 61 56 53 51 50 49 49 45 36 33 37 35 31 30 28 23 18 16 15 20 23 21 20 19 18 19 23 26 25 23 21 20 14 3 350 340 334
149 143 123 105 116 132 153 180 175 147 120 109 123 122 119 124 123 103 75 61 83 113 121 120 119 117 116 116 116 114 112 106 95 87 90 98 103 106 105 101 98 96 92 88 85 80 75 70 65 62 57 54 54 55 52 48 43 37 34 35 34 32 30 28 24 20 16 16 21 25 26 25 24 22 23 27 31 34 34 33 29 25 21 13 3 350
153 149 131 114 128 150 134 114 110 134 157 159 156 160 149 134 128 115 92 77 98 124 129 126 122 122 122 122 123 123 119 106 89 77 81 93 98 101 100 99 98 95 92 89 82 79 78 73 68 65 60 55 52 49 45 40 38 37 36 36 35 33 31 28 26 23 18 17 21 28 32 30 27 26 27 29 32 34 35 35 32 28 27 24 20 11
116 154 150 135 166 183 138 118 132 162 177 169 165 168 165 47 31 113 115 106 123 140 137 133 128 128 131 131 136 140 132 104 86 88 98 100 100 101 99 97 96 94 94 93 88 87 85 77 70 64 56 50 45 41 38 35 36 37 36 36 35 32 29 28 27 25 20 17 21 28 34 34 31 31 32 33 34 34 33 33 31 28 26 26 27 24
76 81 144 137 144 174 168 158 159 152 106 139 150 151 158 173 174 165 149 131 144 150 145 139 134 136 140 140 145 156 153 111 111 135 132 116 108 105 101 99 98 95 96 97 93 90 84 72 64 57 51 46 41 38 35 33 35 37 36 35 33 31 29 28 28 26 21 18 21 27 35 36 34 35 38 37 37 37 37 35 33 30 28 29 32 34
90 87 142 148 149 169 180 163 132 84 66 131 144 145 151 161 177 197 209 160 152 154 150 144 140 141 143 143 147 163 171 134 142 145 138 125 113 108 105 103 100 95 95 94 86 80 75 67 60 54 49 45 41 40 38 35 37 37 36 34 32 30 28 27 28 28 24 22 26 31 38 41 40 41 44 45 44 44 43 41 39 37 35 37 42 44
94 74 107 154 150 156 167 145 106 78 103 144 142 140 150 168 194 217 210 133 145 148 146 143 141 141 144 146 145 117 91 114 130 134 130 123 115 111 109 105 100 93 91 89 83 79 73 66 61 56 51 49 46 44 42 40 41 39 36 35 33 30 28 26 28 32 30 28 33 40 45 48 47 45 47 50 52 53 51 49 48 46 45 46 50 52
112 106 124 140 140 147 157 145 121 93 121 150 142 137 161 203 212 135 111 129 140 142 140 139 137 138 140 134 122 111 107 114 123 126 125 122 117 115 113 107 101 96 91 88 84 80 74 67 65 61 58 57 55 53 49 47 46 42 38 37 35 31 29 27 31 35 36 36 38 44 49 50 47 46 46 48 49 50 50 50 49 49 49 49 51 54
41 165 149 112 90 146 154 151 149 122 138 155 154 147 177 313 115 122 123 129 134 135 134 132 129 132 131 121 117 117 116 120 123 124 124 123 118 116 114 109 105 99 95 89 83 80 77 73 69 66 63 62 60 57 53 50 48 45 41 38 35 32 32 32 33 37 41 43 42 42 46 48 46 45 47 47 48 48 47 44 44 46 46 45 46 48
360 313 152 103 1 234 166 139 102 105 129 144 148 113 88 98 125 132 128 126 130 132 129 125 125 130 129 122 121 122 122 124 124 124 124 122 119 118 116 111 107 102 98 93 86 82 81 77 74 72 68 64 61 57 52 48 46 43 40 37 34 33 34 35 35 37 40 44 45 43 44 46 44 43 46 47 46 46 46 46 45 46 45 42 40 39
34 28 73 76 51 46 79 92 108 110 107 101 86 91 105 115 126 131 128 127 129 131 128 126 128 130 127 124 125 125 125 126 125 124 124 122 121 120 116 111 107 103 101 97 90 85 82 79 77 75 70 64 59 55 50 45 42 40 37 35 34 34 35 36 37 39 39 40 43 44 44 46 44 41 41 40 38 39 42 43 44 46 46 46 43 40
80 68 67 94 103 88 73 84 106 105 94 90 90 101 114 122 125 128 128 128 129 132 133 132 131 131 130 129 128 127 127 127 125 124 124 122 120 119 114 110 107 104 102 98 93 89 85 80 77 73 68 64 58 53 49 44 42 39 36 33 34 36 37 37 37 39 39 39 40 40 41 46 47 43 39 39 38 39 42 42 42 44 45 46 45 43
110 93 97 125 142 136 90 93 104 101 100 103 104 108 115 122 126 128 129 131 132 133 134 134 133 133 132 130 129 127 127 127 126 125 124 123 121 119 115 112 108 104 102 98 95 91 85 80 77 72 67 63 57 52 50 46 43 40 36 34 35 36 38 38 37 37 37 37 37 36 36 41 45 44 43 45 45 45 46 45 43 43 43 43 42 42
139 144 130 124 127 112 103 112 108 100 104 112 114 118 123 124 124 126 127 130 131 131 131 133 132 131 131 130 128 128 128 129 128 127 126 125 122 120 117 114 110 107 104 100 96 91 85 79 76 72 67 63 57 52 50 47 44 42 38 36 37 37 37 39 38 37 37 36 36 36 34 35 39 40 41 45 48 50 50 48 43 41 41 41 39 39
138 151 132 114 112 99 101 121 119 104 102 111 117 122 127 126 125 126 126 127 128 128 129 129 128 129 130 130 130 130 129 129 129 128 126 125 123 122 119 116 114 109 105 100 95 90 85 80 77 74 69 64 58 53 51 49 46 43 40 38 38 38 38 38 39 39 38 36 36 37 36 35 37 37 38 40 43 47 50 51 50 47 44 42 40 39
149 146 126 122 132 134 144 154 148 126 114 123 123 125 128 129 127 126 125 126 127 129 129 128 127 127 128 129 131 130 129 128 128 127 126 125 124 123 121 118 114 109 103 99 93 89 86 81 78 75 70 64 59 55 53 51 47 44 42 39 38 39 39 40 40 40 39 38 39 41 39 38 38 39 39 39 38 39 42 44 47 49 48 45 42 40
148 150 150 145 143 148 153 157 152 129 122 129 129 126 128 130 128 127 127 128 128 130 131 129 127 128 128 129 131 130 128 129 130 129 127 125 124 123 121 118 114 109 105 101 96 92 88 83 78 73 68 65 61 56 54 52 49 45 43 41 40 40 41 42 42 42 40 38 39 41 40 39 39 38 38 38 39 38 36 33 34 38 43 45 44 41
Height
1486 1487 1485 1481 1478 1478 1479 1478 1477 1476 1477 1480 1482 1482 1482 1484 1485 1483 1486 1488 1485 1489 1492 1491 1497 1505 1508 1510 1511 1513 1513 1512 1513 1513 1513 1514 1516 1518 1521 1522 1523 1525 1526 1527 1528 1528 1529 1530 1531 1531 1532 1532 1532 1532 1532 1533 1533 1534 1534 1535 1536 1537 1538 1538 1539 1539 1540 1541 1542 1542 1542 1542 1543 1543 1543 1544 1544 1545 1545 1545 1546 1546 1547 1546 1547 1547
1484 1483 1479 1476 1474 1475 1478 1477 1477 1480 1479 1480 1480 1480 1480 1480 1482 1484 1487 1490 1487 1491 1497 1496 1500 1507 1509 1512 1513 1513 1514 1514 1515 1515 1516 1515 1516 1519 1521 1523 1524 1525 1526 1527 1528 1529 1530 1530 1530 1531 1531 1531 1531 1531 1532 1532 1532 1533 1533 1534 1535 1535 1536 1537 1538 1538 1539 1540 1540 1541 1541 1541 1541 1541 1541 1542 1542 1542 1542 1543 1545 1545 1544 1544 1544 1545
1483 1478 1473 1473 1473 1474 1477 1477 1479 1482 1481 1480 1478 1479 1481 1477 1481 1488 1489 1490 1489 1491 1496 1497 1502 1510 1511 1512 1514 1514 1514 1515 1517 1517 1518 1518 1518 1520 1523 1524 1525 1526 1526 1527 1529 1530 1530 1530 1530 1530 1530 1531 1531 1531 1531 1532 1532 1532 1533 1533 1534 1534 1534 1536 1537 1537 1538 1538 1538 1539 1538 1538 1539 1539 1540 1540 1540 1540 1540 1541 1543 1543 1543 1543 1544 1545
1479 1473 1469 1471 1472 1474 1478 1479 1480 1482 1481 1480 1477 1478 1480 1476 1481 1491 1492 1492 1491 1490 1493 1496 1503 1510 1512 1513 1514 1515 1515 1515 1517 1518 1520 1521 1522 1523 1525 1526 1526 1526 1526 1527 1528 1529 1530 1530 1529 1530 1530 1531 1531 1531 1531 1531 1531 1532 1532 1532 1533 1533 1533 1534 1535 1536 1537 1536 1536 1536 1536 1537 1537 1537 1538 1538 1538 1538 1538 1539 1540 1541 1543 1543 1543 1544
1471 1467 1467 1471 1474 1475 1478 1480 1480 1482 1482 1479 1476 1475 1476 1475 1478 1483 1489 1492 1492 1493 1492 1495 1506 1511 1510 1514 1516 1515 1515 1514 1515 1518 1520 1522 1523 1524 1525 1526 1526 1526 1526 1527 1528 1529 1529 1529 1529 1530 1530 1531 1531 1531 1531 1531 1531 1531 1531 1531 1532 1532 1533 1533 1534 1535 1535 1535 1535 1535 1535 1535 1535 1535 1535 1535 1535 1536 1537 1537 1538 1539 1540 1541 1541 1543
1466 1464 1467 1471 1473 1474 1477 1479 1478 1479 1480 1481 1479 1473 1472 1475 1478 1481 1487 1490 1496 1501 1494 1492 1507 1516 1512 1513 1517 1515 1513 1514 1515 1517 1520 1523 1524 1525 1526 1527 1527 1527 1528 1528 1528 1529 1529 1529 1529 1529 1530 1531 1531 1531 1531 1530 1530 1530 1531 1531 1531 1532 1532 1533 1533 1534 1535 1534 1534 1535 1534 1534 1534 1533 1533 1533 1532 1533 1533 1534 1535 1536 1537 1538 1539 1540
1462 1463 1468 1470 1471 1473 1475 1476 1475 1474 1478 1481 1480 1475 1473 1475 1479 1483 1485 1487 1494 1498 1493 1490 1501 1514 1516 1515 1517 1514 1512 1514 1515 1517 1520 1523 1525 1526 1527 1528 1528 1528 1529 1529 1529 1529 1529 1529 1529 1530 1530 1530 1531 1531 1530 1530 1530 1530 1530 1530 1531 1531 1532 1532 1532 1533 1533 1533 1533 1534 1533 1533 1532 1531 1531 1531 1529 1529 1529 1531 1533 1534 1535 1536 1537 1538
1459 1464 1468 1468 1470 1472 1472 1473 1472 1471 1475 1478 1475 1476 1478 1477 1479 1483 1482 1484 1486 1488 1493 1492 1492 1505 1517 1517 1515 1512 1511 1514 1516 1518 1521 1523 1526 1528 1529 1530 1529 1530 1530 1530 1530 1529 1530 1530 1530 1531 1531 1531 1531 1531 1531 1531 1530 1530 1530 1530 1530 1531 1531 1531 1532 1532 1532 1533 1533 1533 1532 1532 1531 1530 1530 1529 1527 1527 1527 1529 1531 1532 1534 1534 1535 1536
1459 1464 1465 1466 1469 1470 1468 1468 1469 1471 1474 1473 1473 1476 1479 1478 1479 1479 1479 1481 1481 1489 1499 1494 1488 1500 1514 1514 1512 1510 1511 1516 1518 1521 1524 1525 1528 1529 1530 1531 1531 1531 1531 1530 1530 1530 1530 1531 1531 1531 1531 1531 1531 1531 1531 1531 1531 1531 1530 1530 1531 1530 1531 1531 1531 1531 1531 1532 1532 1532 1532 1531 1531 1530 1529 1528 1527 1527 1528 1529 1530 1531 1532 1533 1533 1534
1461 1463 1463 1465 1466 1466 1465 1465 1468 1472 1472 1472 1476 1478 1478 1480 1479 1478 1479 1479 1484 1495 1497 1490 1486 1496 1511 1513 1510 1511 1513 1517 1520 1523 1526 1528 1529 1531 1531 1532 1532 1532 1532 1531 1531 1531 1531 1531 1531 1532 1531 1531 1531 1531 1531 1531 1531 1531 1530 1530 1530 1530 1530 1531 1531 1531 1530 1531 1531 1531 1531 1531 1530 1529 1529 1528 1527 1528 1528 1529 1530 1531 1531 1532 1532 1532
1459 1462 1463 1464 1463 1462 1463 1465 1468 1471 1472 1474 1477 1479 1481 1482 1479 1481 1479 1476 1492 1502 1490 1483 1484 1491 1509 1512 1506 1512 1514 1515 1520 1523 1527 1529 1530 1532 1533 1533 1534 1533 1533 1533 1532 1531 1531 1532 1531 1532 1531 1531 1531 1531 1530 1530 1530 1530 1530 1530 1530 1529 1530 1530 1530 1530 1530 1530 1530 1529 1530 1529 1529 1528 1528 1527 1527 1528 1528 1529 1530 1530 1531 1531 1531 1531
1460 1463 1462 1461 1462 1461 1463 1467 1470 1471 1472 1475 1476 1478 1484 1485 1484 1487 1485 1484 1500 1503 1484 1481 1484 1487 1504 1510 1509 1516 1517 1514 1518 1522 1526 1529 1531 1533 1534 1535 1535 1534 1534 1533 1533 1532 1532 1532 1532 1532 1532 1531 1531 1531 1530 1530 1529 1529 1529 1528 1528 1528 1528 1528 1528 1528 1528 1528 1528 1528 1528 1528 1527 1526 1526 1526 1526 1526 1527 1528 1529 1530 1530 1530 1530 1531
1460 1460 1459 1462 1463 1461 1463 1469 1473 1473 1473 1473 1472 1477 1486 1491 1494 1496 1494 1494 1499 1494 1484 1484 1487 1491 1502 1508 1511 1518 1518 1518 1521 1523 1527 1530 1531 1534 1535 1535 1536 1535 1535 1533 1533 1533 1532 1532 1532 1532 1532 1532 1532 1531 1530 1530 1529 1528 1528 1527 1527 1527 1526 1526 1526 1526 1526 1526 1527 1526 1526 1526 1525 1525 1524 1524 1525 1525 1525 1526 1527 1528 1529 1529 1529 1529
1461 1458 1457 1461 1462 1461 1461 1464 1471 1473 1472 1471 1469 1474 1481 1487 1499 1503 1495 1494 1496 1493 1490 1485 1487 1501 1510 1511 1513 1518 1520 1522 1524 1526 1528 1530 1532 1534 1535 1536 1536 1535 1535 1534 1534 1534 1533 1533 1533 1533 1533 1533 1532 1531 1530 1529 1529 1528 1528 1527 1526 1526 1525 1525 1524 1524 1524 1524 1524 1524 1524 1524 1524 1523 1523 1522 1523 1523 1523 1523 1524 1525 1526 1527 1527 1527
1461 1461 1457 1457 1458 1459 1459 1458 1462 1467 1468 1469 1463 1464 1471 1473 1486 1496 1489 1487 1490 1493 1495 1493 1494 1503 1511 1514 1516 1520 1523 1524 1525 1528 1529 1531 1532 1534 1536 1536 1537 1537 1536 1536 1535 1535 1535 1534 1534 1533 1533 1533 1532 1531 1530 1529 1528 1527 1527 1526 1525 1525 1524 1523 1523 1522 1522 1522 1521 1521 1521 1521 1522 1521 1521 1521 1521 1521 1522 1522 1522 1522 1523 1524 1524 1524
1456 1456 1450 1452 1453 1454 1459 1456 1456 1462 1468 1468 1460 1461 1467 1461 1465 1483 1486 1481 1483 1491 1501 1504 1505 1507 1510 1516 1518 1520 1524 1524 1527 1530 1530 1532 1533 1534 1537 1537 1537 1538 1537 1537 1537 1536 1536 1535 1535 1534 1533 1533 1532 1531 1530 1528 1528 1527 1526 1525 1524 1523 1523 1522 1522 1521 1521 1520 1520 1519 1519 1519 1519 1519 1519 1519 1519 1520 1520 1520 1520 1520 1520 1520 1521 1521
1452 1451 1444 1450 1454 1451 1456 1455 1454 1460 1464 1466 1466 1464 1461 1452 1456 1478 1490 1486 1484 1495 1507 1509 1511 1515 1516 1518 1518 1519 1522 1523 1527 1531 1531 1533 1534 1535 1537 1538 1539 1539 1539 1538 1538 1537 1537 1536 1536 1535 1534 1533 1532 1531 1530 1529 1528 1526 1525 1524 1523 1523 1522 1521 1521 1521 1520 1519 1518 1517 1517 1517 1517 1517 1518 1518 1518 1518 1518 1518 1518 1518 1517 1517 1517 1517
1445 1447 1444 1449 1454 1452 1453 1454 1455 1456 1457 1464 1468 1463 1458 1458 1459 1467 1484 1493 1489 1495 1508 1507 1507 1514 1513 1513 1517 1518 1521 1523 1526 1530 1532 1533 1534 1535 1537 1539 1540 1540 1539 1539 1539 1538 1538 1537 1536 1535 1534 1534 1533 1532 1531 1529 1528 1526 1525 1524 1523 1522 1522 1521 1520 1520 1519 1518 1517 1516 1515 1515 1515 1516 1516 1516 1516 1516 1516 1516 1516 1515 1515 1514 1514 1515
1440 1447 1449 1447 1449 1452 1452 1454 1459 1458 1455 1459 1460 1456 1460 1471 1472 1468 1477 1491 1490 1495 1508 1506 1504 1507 1501 1502 1513 1517 1520 1523 1524 1528 1531 1532 1534 1536 1538 1540 1540 1540 1539 1539 1539 1539 1538 1537 1537 1536 1535 1535 1534 1533 1531 1530 1528 1526 1525 1524 1523 1523 1522 1521 1520 1519 1518 1517 1516 1515 1514 1513 1513 1514 1514 1514 1514 1514 1514 1515 1514 1513 1512 1512 1513 1513
1438 1445 1452 1447 1445 1450 1453 1454 1458 1459 1459 1458 1456 1456 1459 1464 1468 1467 1470 1475 1478 1490 1504 1507 1507 1503 1492 1494 1506 1513 1518 1521 1523 1528 1531 1533 1535 1537 1539 1540 1540 1540 1539 1539 1539 1539 1538 1538 1538 1537 1537 1536 1535 1534 1532 1530 1529 1527 1526 1525 1524 1523 1522 1520 1519 1518 1517 1516 1515 1514 1513 1512 1512 1512 1512 1512 1512 1512 1513 1513 1512 1511 1511 1510 1511 1511
1438 1443 1450 1449 1447 1451 1452 1451 1449 1452 1457 1458 1457 1458 1460 1459 1459 1463 1468 1466 1467 1480 1495 1504 1507 1499 1491 1494 1502 1511 1518 1520 1522 1527 1531 1534 1537 1538 1539 1540 1540 1539 1539 1539 1540 1540 1539 1539 1539 1538 1538 1537 1536 1534 1532 1531 1529 1527 1526 1525 1524 1523 1522 1520 1519 1517 1516 1515 1515 1514 1513 1512 1511 1511 1511 1510 1510 1510 1511 1511 1511 1511 1510 1509 1509 1510
1437 1438 1444 1449 1450 1449 1446 1444 1444 1445 1448 1452 1455 1454 1455 1458 1458 1468 1479 1471 1463 1470 1479 1489 1498 1500 1500 1498 1500 1509 1515 1517 1521 1526 1531 1535 1537 1539 1540 1540 1540 1540 1540 1541 1541 1541 1541 1541 1540 1539 1538 1537 1535 1534 1532 1531 1530 1528 1527 1526 1525 1524 1522 1520 1518 1517 1516 1515 1514 1513 1512 1512 1511 1510 1510 1509 1509 1509 1509 1509 1510 1510 1509 1508 1509 1509
1435 1435 1439 1445 1446 1444 1445 1446 1447 1447 1445 1447 1450 1447 1449 1454 1455 1465 1477 1474 1469 1470 1471 1474 1487 1504 1511 1504 1502 1509 1513 1516 1522 1525 1530 1535 1537 1539 1540 1540 1540 1541 1541 1543 1543 1542 1542 1542 1541 1540 1538 1537 1535 1533 1532 1531 1531 1529 1528 1527 1526 1524 1522 1520 1518 1517 1516 1515 1514 1513 1512 1511 1510 1510 1509 1509 1509 1509 1508 1508 1508 1508 1508 1507 1508 1508
1436 1434 1437 1443 1443 1443 1447 1448 1448 1449 1448 1448 1447 1444 1446 1449 1450 1453 1458 1463 1470 1474 1474 1477 1488 1506 1516 1511 1509 1513 1515 1519 1524 1526 1530 1535 1537 1539 1540 1541 1541 1542 1543 1544 1543 1544 1543 1543 1542 1540 1539 1537 1535 1534 1532 1531 1531 1530 1530 1528 1525 1524 1522 1520 1518 1517 1516 1515 1514 1512 1511 1510 1509 1509 1509 1508 1508 1507 1507 1507 1507 1507 1506 1506 1506 1507
1437 1435 1436 1446 1454 1456 1456 1456 1455 1453 1450 1448 1449 1449 1448 1446 1448 1452 1452 1457 1468 1471 1471 1475 1486 1503 1516 1516 1516 1518 1519 1523 1527 1528 1531 1534 1537 1539 1540 1541 1542 1543 1544 1544 1544 1544 1544 1543 1542 1540 1539 1537 1535 1534 1533 1532 1532 1531 1530 1528 1526 1524 1522 1520 1518 1517 1516 1515 1513 1512 1511 1509 1508 1508 1507 1507 1506 1506 1506 1506 1505 1505 1505 1504 1504 1504
1438 1441 1439 1443 1454 1460 1460 1458 1454 1450 1449 1451 1454 1455 1453 1450 1450 1453 1458 1464 1470 1473 1469 1469 1486 1508 1518 1517 1519 1521 1521 1525 1529 1530 1532 1535 1538 1539 1540 1542 1542 1543 1544 1544 1544 1545 1544 1544 1543 1540 1539 1538 1536 1535 1534 1533 1533 1532 1531 1530 1528 1526 1523 1521 1519 1518 1517 1515 1513 1512 1510 1509 1508 1506 1506 1505 1504 1504 1504 1504 1504 1504 1503 1503 1502 1502
1439 1447 1446 1443 1445 1448 1451 1451 1447 1444 1447 1454 1457 1457 1456 1456 1453 1453 1460 1463 1465 1472 1471 1469 1486 1510 1517 1517 1521 1523 1523 1526 1529 1530 1533 1536 1538 1539 1540 1542 1542 1543 1543 1544 1544 1545 1545 1544 1543 1541 1540 1539 1537 1537 1535 1535 1534 1532 1532 1530 1529 1527 1524 1522 1521 1519 1518 1516 1514 1512 1510 1508 1507 1505 1504 1503 1502 1502 1502 1501 1501 1501 1501 1501 1500 1500
1437 1448 1453 1451 1450 1451 1452 1452 1448 1445 1448 1453 1457 1459 1460 1461 1458 1457 1462 1461 1458 1467 1475 1477 1487 1503 1512 1516 1520 1523 1525 1527 1529 1531 1533 1536 1538 1540 1541 1542 1543 1544 1544 1544 1545 1545 1545 1544 1543 1542 1541 1539 1539 1538 1537 1536 1535 1533 1532 1531 1529 1528 1526 1524 1522 1521 1520 1517 1514 1512 1510 1508 1507 1505 1503 1502 1501 1500 1499 1499 1499 1498 1498 1498 1498 1498
1435 1450 1457 1455 1456 1457 1455 1452 1449 1449 1454 1457 1459 1462 1463 1463 1461 1462 1467 1465 1460 1465 1472 1479 1488 1498 1509 1517 1520 1523 1526 1528 1530 1532 1534 1536 1538 1540 1541 1542 1544 1545 1545 1546 1546 1545 1545 1544 1543 1543 1542 1541 1540 1539 1538 1537 1536 1535 1533 1531 1530 1528 1527 1526 1524 1523 1521 1519 1515 1513 1511 1509 1507 1505 1503 1501 1499 1498 1497 1496 1496 1496 1496 1495 1495 1495
1437 1453 1458 1454 1458 1461 1458 1456 1454 1454 1459 1462 1464 1466 1466 1466 1466 1468 1471 1469 1466 1468 1472 1481 1493 1505 1514 1519 1522 1526 1528 1529 1532 1535 1535 1537 1539 1540 1542 1543 1544 1545 1546 1546 1546 1546 1545 1544 1544 1544 1543 1543 1542 1540 1540 1538 1537 1536 1534 1532 1531 1529 1529 1527 1525 1524 1522 1520 1517 1514 1511 1509 1507 1505 1503 1500 1499 1497 1495 1494 1494 1494 1494 1494 1493 1493
1440 1454 1458 1453 1458 1465 1463 1461 1459 1458 1461 1467 1471 1471 1469 1470 1472 1474 1476 1474 1473 1478 1486 1492 1504 1517 1522 1523 1525 1529 1530 1531 1534 1536 1536 1538 1540 1541 1543 1544 1545 1546 1546 1547 1546 1546 1546 1545 1545 1544 1544 1544 1543 1541 1540 1539 1538 1537 1535 1533 1532 1530 1529 1527 1526 1525 1523 1521 1519 1515 1511 1509 1507 1504 1502 1500 1498 1496 1495 1493 1493 1492 1492 1492 1492 1491
1440 1454 1460 1454 1457 1468 1468 1463 1463 1463 1464 1471 1479 1481 1478 1478 1481 1482 1483 1482 1480 1486 1494 1497 1504 1518 1524 1525 1527 1530 1531 1533 1535 1536 1538 1540 1542 1543 1544 1545 1546 1546 1547 1547 1547 1546 1547 1546 1546 1545 1545 1544 1543 1542 1541 1540 1539 1537 1536 1534 1533 1531 1530 1528 1527 1526 1523 1522 1520 1516 1512 1510 1507 1504 1502 1499 1497 1495 1494 1493 1491 1491 1490 1490 1489 1489
1439 1451 1457 1448 1454 1470 1470 1464 1465 1462 1461 1473 1487 1492 1488 1484 1486 1488 1488 1487 1485 1488 1492 1493 1501 1516 1523 1524 1527 1531 1533 1535 1536 1538 1540 1541 1543 1544 1545 1546 1547 1547 1548 1548 1547 1547 1548 1547 1547 1547 1546 1545 1544 1543 1542 1541 1539 1538 1536 1535 1534 1532 1531 1529 1527 1525 1523 1522 1520 1517 1514 1511 1508 1505 1502 1499 1497 1495 1493 1492 1490 1489 1488 1487 1487 1487
1440 1445 1446 1441 1452 1470 1469 1466 1467 1460 1464 1483 1496 1497 1492 1487 1488 1493 1495 1494 1493 1493 1495 1498 1507 1518 1522 1524 1528 1531 1534 1536 1538 1540 1541 1543 1544 1545 1546 1547 1547 1548 1549 1549 1548 1548 1548 1548 1548 1547 1546 1546 1544 1543 1543 1541 1540 1539 1538 1536 1535 1533 1532 1530 1527 1525 1523 1521 1519 1517 1515 1512 1509 1506 1503 1500 1497 1495 1493 1491 1490 1489 1487 1486 1485 1485
1440 1442 1442 1441 1450 1465 1468 1466 1467 1467 1479 1496 1499 1494 1493 1492 1493 1498 1502 1502 1501 1502 1504 1508 1514 1519 1522 1526 1530 1532 1535 1537 1539 1542 1543 1544 1545 1545 1546 1547 1547 1548 1549 1549 1549 1549 1549 1549 1549 1548 1547 1546 1545 1544 1543 1542 1541 1540 1539 1537 1536 1534 1532 1530 1528 1526 1524 1522 1519 1517 1515 1513 1510 1507 1504 1501 1498 1496 1494 1492 1490 1488 1487 1486 1484 1483
1437 1439 1442 1444 1451 1462 1466 1464 1470 1483 1496 1501 1498 1494 1494 1495 1494 1497 1505 1509 1508 1507 1510 1512 1517 1522 1525 1529 1532 1533 1536 1538 1540 1543 1545 1545 1546 1546 1547 1547 1548 1549 1550 1550 1550 1550 1550 1550 1549 1549 1548 1547 1546 1545 1544 1543 1542 1541 1540 1538 1537 1535 1533 1531 1529 1527 1525 1523 1520 1518 1516 1514 1511 1509 1506 1503 1500 1497 1495 1492 1491 1489 1487 1485 1484 1483
1434 1436 1441 1449 1455 1457 1461 1471 1485 1496 1498 1497 1498 1496 1492 1493 1491 1490 1502 1515 1514 1511 1513 1516 1519 1523 1527 1530 1533 1535 1536 1537 1541 1545 1546 1546 1547 1547 1547 1548 1549 1550 1550 1551 1551 1551 1551 1551 1550 1550 1549 1549 1548 1546 1545 1545 1544 1543 1541 1539 1538 1536 1534 1532 1530 1528 1526 1524 1521 1519 1517 1515 1513 1510 1508 1505 1502 1499 1496 1494 1492 1490 1488 1486 1485 1483
1435 1435 1437 1448 1457 1454 1457 1473 1485 1485 1483 1487 1493 1493 1490 1493 1492 1489 1498 1513 1516 1514 1516 1518 1520 1523 1527 1530 1533 1534 1534 1536 1542 1547 1548 1548 1548 1548 1548 1549 1550 1551 1551 1552 1552 1552 1552 1551 1551 1551 1551 1550 1549 1548 1547 1547 1545 1544 1542 1540 1539 1537 1535 1533 1531 1529 1528 1526 1523 1521 1519 1516 1514 1511 1509 1507 1504 1501 1499 1496 1494 1492 1490 1488 1486 1485
1438 1437 1435 1443 1455 1454 1453 1461 1467 1472 1479 1484 1488 1492 1492 1493 1494 1491 1493 1505 1516 1517 1517 1519 1521 1523 1527 1529 1532 1533 1533 1536 1544 1548 1548 1548 1549 1549 1549 1551 1552 1552 1552 1552 1553 1552 1552 1552 1552 1552 1552 1551 1550 1550 1549 1548 1546 1545 1543 1541 1540 1538 1536 1534 1532 1531 1530 1527 1525 1522 1520 1518 1515 1513 1510 1508 1506 1504 1501 1499 1496 1495 1493 1491 1489 1487
1441 1441 1440 1444 1452 1454 1452 1456 1464 1477 1488 1489 1488 1492 1493 1493 1495 1492 1488 1498 1513 1518 1517 1519 1521 1524 1527 1529 1532 1533 1531 1534 1541 1546 1547 1548 1549 1550 1551 1552 1553 1553 1553 1554 1554 1554 1554 1554 1554 1553 1552 1552 1551 1550 1550 1549 1548 1546 1545 1543 1542 1540 1537 1536 1534 1533 1531 1529 1527 1524 1521 1519 1517 1514 1512 1510 1508 1507 1504 1502 1500 1498 1496 1494 1493 1491
1449 1448 1446 1447 1451 1454 1455 1458 1469 1483 1491 1491 1490 1492 1494 1494 1494 1489 1487 1497 1509 1515 1518 1521 1522 1525 1528 1530 1531 1533 1532 1533 1538 1544 1547 1548 1549 1550 1552 1552 1553 1554 1555 1555 1555 1555 1555 1555 1554 1554 1553 1552 1552 1551 1550 1550 1548 1547 1546 1544 1543 1541 1539 1538 1536 1534 1533 1531 1529 1526 1523 1521 1519 1517 1515 1513 1511 1509 1507 1505 1504 1502 1500 1498 1496 1495
1453 1455 1452 1451 1453 1455 1456 1460 1470 1483 1492 1493 1492 1494 1495 1493 1490 1491 1497 1504 1509 1514 1518 1521 1523 1526 1529 1530 1532 1534 1535 1537 1541 1544 1547 1549 1550 1551 1553 1554 1554 1556 1556 1556 1556 1556 1556 1556 1555 1555 1554 1553 1553 1552 1551 1550 1549 1548 1546 1545 1544 1543 1541 1540 1538 1536 1534 1533 1531 1528 1526 1524 1521 1519 1518 1516 1514 1512 1510 1509 1508 1506 1504 1502 1501 1499
1458 1457 1454 1459 1463 1459 1458 1464 1471 1480 1489 1493 1493 1494 1495 1493 1494 1499 1505 1508 1511 1515 1518 1521 1525 1527 1529 1531 1533 1535 1537 1540 1543 1545 1547 1549 1551 1552 1554 1555 1556 1557 1557 1557 1557 1557 1557 1557 1557 1556 1555 1555 1554 1553 1553 1551 1550 1548 1547 1546 1545 1544 1543 1541 1540 1538 1536 1534 1533 1530 1528 1526 1524 1522 1520 1518 1517 1515 1514 1512 1511 1509 1507 1506 1504 1502
1466 1461 1455 1464 1471 1463 1460 1471 1480 1484 1490 1493 1493 1493 1495 1497 1500 1503 1505 1508 1514 1518 1519 1522 1526 1528 1529 1531 1534 1536 1539 1541 1544 1547 1548 1550 1552 1554 1555 1556 1557 1557 1558 1558 1558 1558 1558 1558 1558 1557 1557 1556 1556 1555 1554 1552 1551 1550 1548 1547 1546 1545 1544 1543 1541 1540 1538 1536 1534 1532 1530 1528 1526 1525 1523 1521 1519 1518 1516 1515 1514 1512 1509 1508 1506 1504
1471 1469 1464 1470 1480 1476 1474 1483 1492 1493 1493 1495 1496 1497 1499 1501 1503 1505 1506 1509 1514 1518 1520 1522 1526 1529 1530 1532 1534 1538 1541 1542 1545 1548 1549 1551 1554 1555 1556 1557 1558 1558 1558 1559 1559 1560 1560 1559 1559 1559 1558 1558 1557 1556 1555 1554 1553 1551 1549 1548 1547 1546 1545 1544 1543 1541 1540 1538 1536 1534 1533 1531 1529 1527 1525 1523 1522 1520 1518 1517 1515 1513 1511 1509 1508 1506
1475 1475 1471 1476 1484 1487 1488 1493 1496 1495 1496 1498 1499 1501 1502 1504 1506 1507 1509 1512 1515 1519 1522 1524 1526 1530 1532 1534 1536 1539 1541 1544 1546 1548 1551 1553 1555 1556 1557 1558 1558 1559 1559 1560 1560 1561 1561 1561 1560 1560 1559 1559 1558 1557 1557 1556 1554 1553 1551 1550 1549 1548 1547 1546 1544 1543 1542 1540 1539 1537 1535 1533 1531 1530 1528 1526 1524 1522 1520 1519 1517 1515 1513 1511 1510 1508
1478 1475 1474 1477 1481 1484 1491 1498 1498 1497 1499 1501 1501 1503 1505 1506 1508 1510 1512 1515 1518 1520 1523 1526 1528 1531 1533 1536 1538 1539 1542 1545 1547 1549 1552 1554 1555 1557 1558 1559 1559 1560 1561 1561 1561 1562 1562 1562 1561 1561 1560 1560 1559 1559 1558 1557 1556 1555 1554 1552 1551 1550 1548 1547 1546 1544 1543 1542 1541 1539 1538 1536 1533 1532 1530 1528 1526 1525 1523 1521 1519 1517 1515 1513 1512 1511
1475 1475 1476 1478 1481 1485 1493 1500 1500 1499 1502 1503 1503 1506 1507 1508 1510 1513 1514 1517 1519 1522 1525 1528 1530 1532 1535 1537 1539 1541 1544 1547 1549 1551 1553 1555 1556 1558 1559 1560 1561 1561 1561 1562 1562 1563 1562 1562 1562 1562 1561 1561 1560 1560 1559 1558 1557 1556 1555 1554 1553 1552 1550 1548 1547 1546 1545 1543 1542 1541 1540 1538 1537 1535 1533 1531 1529 1527 1525 1523 1522 1520 1518 1516 1515 1514
1472 1474 1477 1482 1489 1494 1497 1500 1500 1501 1505 1506 1506 1507 1509 1510 1512 1514 1516 1519 1521 1523 1526 1529 1532 1535 1537 1539 1541 1543 1545 1548 1550 1552 1554 1556 1557 1559 1560 1561 1561 1562 1562 1563 1563 1563 1563 1563 1563 1562 1562 1562 1561 1561 1560 1559 1558 1557 1557 1556 1554 1553 1552 1550 1549 1548 1546 1545 1544 1542 1541 1540 1539 1538 1536 1535 1532 1530 1528 1526 1525 1523 1522 1520 1519 1517
1472 1474 1479 1485 1491 1494 1495 1496 1497 1498 1502 1507 1508 1509 1511 1512 1514 1515 1518 1520 1523 1526 1528 1531 1534 1537 1540 1541 1544 1545 1547 1549 1552 1553 1555 1557 1558 1559 1561 1561 1562 1563 1563 1564 1564 1564 1564 1564 1563 1563 1563 1563 1562 1562 1561 1561 1560 1559 1558 1557 1556 1554 1553 1552 1551 1549 1548 1547 1545 1544 1543 1542 1541 1540 1539 1537 1536 1534 1532 1530 1528 1527 1525 1523 1522 1521
1475 1477 1479 1480 1482 1486 1490 1494 1495 1496 1501 1507 1509 1510 1512 1514 1515 1517 1519 1522 1525 1528 1530 1532 1534 1538 1541 1544 1546 1547 1549 1551 1553 1554 1556 1558 1559 1560 1561 1562 1562 1563 1564 1564 1564 1565 1564 1564 1564 1564 1564 1564 1563 1563 1562 1562 1561 1560 1559 1558 1557 1556 1555 1553 1552 1551 1550 1549 1547 1546 1545 1544 1543 1542 1541 1539 1538 1537 1535 1533 1532 1530 1528 1527 1525 1524